Погода в Силвер Сити

США     32°46′09″N   108°16′28″W
темп.,
°C
ветер,
м/с
пор.,
м/с
влажн.,
%
обл.,
%
осадки,
мм/ч
давл.,
гПа
погр.,
м
31 июля, сб
сб3100:00+21юв334652 0.0 101935
03:00+18св33592 0.3 101930
06:00+18св226384 0.4 101914
09:00+22вюв354885 0.0 1020774
12:00+26юв553735 0.0 10182176
15:00+26ююв553592 0.1 10172303
18:00+27ю343265 0.1 10152486
21:00+24ю234560 0.0 1016123
1 августа, вс
вс100:00+23св234583 0.1 101746
03:00+22ссв005258 0.4 101713
06:00+20вюв006165 1.1 101917
09:00+23ссв215120 0.3 1019359
12:00+27ююв333578 0.3 10182594
15:00+24зсз664869 0.4 1018572
18:00+20св4469100 1.8 1019202
21:00+19ююв236792 2.9 1019132
2 августа, пн
пн200:00+19ссв3370100 2.9 102040
03:00+18всв11687 0.0 102011
06:00+18ююв11725 0.0 102011
09:00+21юв226090 0.0 1020513
12:00+25ю11455 0.0 10181489
15:00+26ююз1240100 0.3 10151937
18:00+18вюв6870100 4.1 1017272
21:00+17всв3480100 12.9 1019175
3 августа, вт
вт300:00+18ссв3375100 12.9 101982
03:00+18ссв117091 0.0 101811
06:00+18св007041 0.0 101711
09:00+21зсз11555 0.0 1017352
12:00+26з12410 0.0 10151328
15:00+30зюз563052 0.0 10122524
18:00+20вюв337099 2.1 1015299
21:00+20в116898 1.9 1015142
4 августа, ср
ср400:00+20ссв226613 1.9 101521
03:00+19юв22735 0.1 101632
06:00+18с22700 0.1 101512
09:00+23сз34490 0.0 1015360
12:00+28зсз55322 0.0 10131730
15:00+29с133136 0.1 10111149
18:00+27ю443251 0.2 1010742
21:00+22ююз015218 0.6 101363